| time (UTC) | temp F | wind direction | speed MPH | gust MPH | rain 1hr in | rain 24hr in | rain mn in | humidity % | barometer mb |
| 20260505041404 | 53 | 149 | 0.0 | 1.0 | 0.00 | 0.13 | 0.13 | 97 | 1013.0 |
| 20260505040901 | 53 | 160 | 0.0 | 1.0 | 0.07 | 0.13 | 0.13 | 97 | 1012.9 |
| 20260505040359 | 53 | 170 | 0.0 | 1.0 | 0.07 | 0.13 | 0.13 | 98 | 1013.1 |
| 20260505035855 | 53 | 148 | 0.0 | 1.0 | 0.00 | 0.12 | 0.12 | 97 | 1013.1 |
| 20260505035351 | 53 | 161 | 0.0 | 0.0 | 0.00 | 0.12 | 0.12 | 97 | 1013.4 |
| 20260505034849 | 53 | 160 | 0.0 | 0.0 | 0.00 | 0.12 | 0.12 | 97 | 1013.4 |
| 20260505034345 | 53 | 160 | 0.0 | 0.0 | 0.00 | 0.12 | 0.12 | 97 | 1013.4 |
| 20260505033842 | 53 | 160 | 0.0 | 0.0 | 0.00 | 0.12 | 0.12 | 97 | 1013.4 |
| 20260505033339 | 53 | 160 | 0.0 | 1.0 | 0.00 | 0.12 | 0.12 | 97 | 1013.3 |
| 20260505032838 | 53 | 127 | 1.0 | 1.0 | 0.00 | 0.12 | 0.12 | 97 | 1013.1 |
| 20260505032334 | 53 | 180 | 0.0 | 0.0 | 0.05 | 0.12 | 0.12 | 97 | 1013.2 |
| 20260505031831 | 53 | 180 | 0.0 | 1.0 | 0.05 | 0.12 | 0.12 | 97 | 1013.2 |
| 20260505031327 | 53 | 146 | 0.0 | 1.0 | 0.07 | 0.11 | 0.11 | 97 | 1012.8 |
| 20260505030825 | 53 | 150 | 0.0 | 0.0 | 0.07 | 0.11 | 0.11 | 97 | 1013.1 |
| 20260505030321 | 53 | 150 | 0.0 | 0.0 | 0.00 | 0.10 | 0.10 | 97 | 1013.1 |
| 20260505025816 | 53 | 149 | 0.0 | 0.0 | 0.00 | 0.10 | 0.10 | 97 | 1013.1 |
| 20260505025314 | 53 | 147 | 0.0 | 0.0 | 0.00 | 0.10 | 0.10 | 97 | 1013.0 |
| 20260505024812 | 53 | 169 | 0.0 | 0.0 | 0.00 | 0.10 | 0.10 | 97 | 1013.4 |
| 20260505024309 | 53 | 182 | 0.0 | 1.0 | 0.00 | 0.10 | 0.10 | 97 | 1013.2 |
| 20260505023807 | 53 | 162 | 0.0 | 0.0 | 0.00 | 0.10 | 0.10 | 96 | 1013.1 |
| 20260505023303 | 53 | 172 | 0.0 | 1.0 | 0.00 | 0.10 | 0.10 | 96 | 1013.1 |
| 20260505022801 | 53 | 184 | 0.0 | 1.0 | 0.05 | 0.10 | 0.10 | 96 | 1013.0 |
| 20260505022258 | 53 | 165 | 0.0 | 0.0 | 0.05 | 0.10 | 0.10 | 96 | 1012.7 |
| 20260505021754 | 53 | 164 | 0.0 | 0.0 | 0.00 | 0.09 | 0.09 | 96 | 1012.8 |
| 20260505021251 | 53 | 176 | 0.0 | 1.0 | 0.00 | 0.09 | 0.09 | 96 | 1012.7 |
| 20260505020747 | 53 | 152 | 1.0 | 2.0 | 0.00 | 0.09 | 0.09 | 96 | 1012.8 |
| 20260505020242 | 53 | 164 | 0.0 | 0.0 | 0.00 | 0.09 | 0.09 | 96 | 1012.9 |
| 20260505015740 | 53 | 178 | 0.0 | 2.0 | 0.07 | 0.09 | 0.09 | 95 | 1013.0 |
| 20260505015237 | 53 | 192 | 1.0 | 3.0 | 0.07 | 0.09 | 0.09 | 95 | 1013.0 |
| 20260505014734 | 53 | 199 | 2.0 | 3.0 | 0.00 | 0.08 | 0.08 | 95 | 1013.0 |
| 20260505014231 | 53 | 204 | 2.0 | 2.0 | 0.00 | 0.08 | 0.08 | 95 | 1012.6 |
| 20260505013728 | 53 | 136 | 2.0 | 2.0 | 0.00 | 0.08 | 0.08 | 95 | 1012.4 |
| 20260505013225 | 53 | 13 | 4.0 | 6.0 | 0.12 | 0.08 | 0.08 | 94 | 1012.5 |
| 20260505012723 | 53 | 151 | 0.0 | 1.0 | 0.19 | 0.08 | 0.08 | 94 | 1012.7 |
| 20260505012220 | 53 | 149 | 0.0 | 1.0 | 0.12 | 0.06 | 0.06 | 93 | 1012.9 |
| 20260505011716 | 53 | 134 | 1.0 | 1.0 | 0.07 | 0.04 | 0.04 | 92 | 1013.0 |
| 20260505011213 | 53 | 179 | 0.0 | 1.0 | 0.17 | 0.03 | 0.03 | 91 | 1013.2 |
| 20260505010708 | 53 | 188 | 1.0 | 1.0 | 0.17 | 0.03 | 0.03 | 89 | 1012.9 |
| 20260505010205 | 53 | 121 | 1.0 | 2.0 | 0.00 | 0.00 | 0.00 | 87 | 1013.0 |
| 20260505005701 | 53 | 174 | 0.0 | 0.0 | 0.00 | 0.00 | 0.00 | 86 | 1013.0 |
| 20260505005159 | 53 | 167 | 0.0 | 0.0 | 0.00 | 0.00 | 0.00 | 86 | 1013.0 |
| 20260505004656 | 53 | 153 | 0.0 | 0.0 | 0.00 | 0.00 | 0.00 | 85 | 1013.0 |
| 20260505004152 | 54 | 151 | 0.0 | 1.0 | 0.00 | 0.00 | 0.00 | 84 | 1012.9 |
| 20260505003649 | 54 | 161 | 0.0 | 0.0 | 0.00 | 0.00 | 0.00 | 84 | 1013.0 |
| 20260505003147 | 54 | 175 | 0.0 | 0.0 | 0.00 | 0.00 | 0.00 | 84 | 1013.3 |
| 20260505002643 | 54 | 176 | 0.0 | 0.0 | 0.00 | 0.00 | 0.00 | 83 | 1013.1 |
| 20260505002141 | 54 | 168 | 0.0 | 0.0 | 0.00 | 0.00 | 0.00 | 84 | 1013.0 |
| 20260505001638 | 54 | 168 | 0.0 | 0.0 | 0.00 | 0.00 | 0.00 | 84 | 1012.8 |
| 20260505001135 | 54 | 168 | 0.0 | 0.0 | 0.00 | 0.00 | 0.00 | 84 | 1013.1 |
| 20260505000632 | 54 | 167 | 0.0 | 0.0 | 0.00 | 0.00 | 0.00 | 83 | 1012.8 |
| 20260505000131 | 54 | 161 | 0.0 | 0.0 | 0.00 | 0.00 | 0.00 | 83 | 1012.9 |
| 20260504235626 | 54 | 161 | 0.0 | 0.0 | 0.00 | 0.00 | 0.00 | 82 | 1012.9 |
| 20260504235123 | 55 | 161 | 0.0 | 0.0 | 0.00 | 0.00 | 0.00 | 82 | 1013.0 |
| 20260504234620 | 55 | 161 | 0.0 | 0.0 | 0.00 | 0.00 | 0.00 | 83 | 1013.1 |
| 20260504234118 | 55 | 160 | 0.0 | 0.0 | 0.00 | 0.00 | 0.00 | 83 | 1013.0 |
| 20260504233613 | 54 | 161 | 0.0 | 0.0 | 0.00 | 0.00 | 0.00 | 83 | 1013.2 |
| 20260504233109 | 55 | 161 | 0.0 | 0.0 | 0.00 | 0.00 | 0.00 | 82 | 1012.9 |
| 20260504232607 | 55 | 161 | 0.0 | 0.0 | 0.00 | 0.00 | 0.00 | 82 | 1013.2 |
| 20260504232104 | 55 | 161 | 0.0 | 0.0 | 0.00 | 0.00 | 0.00 | 82 | 1013.1 |
| 20260504231600 | 55 | 161 | 0.0 | 0.0 | 0.00 | 0.00 | 0.00 | 82 | 1013.1 |
| 20260504231056 | 55 | 161 | 0.0 | 0.0 | 0.00 | 0.00 | 0.00 | 82 | 1013.1 |
| 20260504230553 | 55 | 161 | 0.0 | 0.0 | 0.00 | 0.00 | 0.00 | 81 | 1013.0 |
| 20260504230052 | 55 | 161 | 0.0 | 0.0 | 0.00 | 0.00 | 0.00 | 80 | 1013.0 |
| 20260504225549 | 55 | 161 | 0.0 | 0.0 | 0.00 | 0.00 | 0.00 | 80 | 1013.2 |
| 20260504225046 | 56 | 161 | 0.0 | 0.0 | 0.00 | 0.00 | 0.00 | 79 | 1013.2 |
| 20260504224542 | 56 | 161 | 0.0 | 0.0 | 0.00 | 0.00 | 0.00 | 79 | 1013.0 |
| 20260504224040 | 56 | 161 | 0.0 | 0.0 | 0.00 | 0.00 | 0.00 | 79 | 1013.2 |
| 20260504223537 | 56 | 161 | 0.0 | 0.0 | 0.00 | 0.00 | 0.00 | 79 | 1013.2 |
| 20260504223032 | 56 | 161 | 0.0 | 0.0 | 0.00 | 0.00 | 0.00 | 79 | 1013.2 |
| 20260504222529 | 56 | 161 | 0.0 | 0.0 | 0.00 | 0.00 | 0.00 | 80 | 1013.3 |
| 20260504222027 | 56 | 160 | 0.0 | 0.0 | 0.00 | 0.00 | 0.00 | 80 | 1013.2 |
| 20260504221524 | 56 | 161 | 0.0 | 0.0 | 0.00 | 0.00 | 0.00 | 79 | 1013.3 |
| 20260504221020 | 57 | 161 | 0.0 | 0.0 | 0.00 | 0.00 | 0.00 | 79 | 1013.3 |
| 20260504220517 | 57 | 160 | 0.0 | 0.0 | 0.00 | 0.00 | 0.00 | 79 | 1013.4 |
| 20260504220014 | 57 | 159 | 0.0 | 0.0 | 0.00 | 0.00 | 0.00 | 78 | 1013.3 |
| 20260504215510 | 57 | 157 | 0.0 | 1.0 | 0.00 | 0.00 | 0.00 | 79 | 1013.4 |
| 20260504215008 | 57 | 167 | 0.0 | 0.0 | 0.00 | 0.00 | 0.00 | 79 | 1013.4 |
| 20260504214504 | 57 | 165 | 0.0 | 1.0 | 0.00 | 0.00 | 0.00 | 79 | 1013.2 |
| 20260504214000 | 57 | 156 | 0.0 | 1.0 | 0.00 | 0.00 | 0.00 | 79 | 1013.2 |
| 20260504213456 | 57 | 159 | 0.0 | 0.0 | 0.00 | 0.00 | 0.00 | 80 | 1013.2 |
| 20260504212954 | 57 | 156 | 0.0 | 1.0 | 0.00 | 0.00 | 0.00 | 79 | 1013.2 |
| 20260504212450 | 57 | 159 | 0.0 | 0.0 | 0.00 | 0.00 | 0.00 | 79 | 1013.3 |
| 20260504211947 | 57 | 159 | 0.0 | 0.0 | 0.00 | 0.00 | 0.00 | 78 | 1013.2 |
| 20260504211444 | 58 | 159 | 0.0 | 0.0 | 0.00 | 0.00 | 0.00 | 78 | 1013.4 |
| 20260504210942 | 58 | 159 | 0.0 | 0.0 | 0.00 | 0.00 | 0.00 | 77 | 1013.2 |
| 20260504210438 | 58 | 159 | 0.0 | 0.0 | 0.00 | 0.00 | 0.00 | 77 | 1013.3 |
| 20260504205935 | 59 | 159 | 0.0 | 0.0 | 0.00 | 0.00 | 0.00 | 76 | 1013.2 |
| 20260504205433 | 59 | 159 | 0.0 | 1.0 | 0.00 | 0.00 | 0.00 | 76 | 1013.3 |
| 20260504204931 | 59 | 115 | 2.0 | 3.0 | 0.00 | 0.00 | 0.00 | 76 | 1013.4 |
| 20260504204429 | 59 | 163 | 0.0 | 1.0 | 0.00 | 0.00 | 0.00 | 75 | 1013.2 |
| 20260504203928 | 60 | 163 | 0.0 | 1.0 | 0.00 | 0.00 | 0.00 | 75 | 1013.2 |
| 20260504203425 | 60 | 64 | 2.0 | 3.0 | 0.00 | 0.00 | 0.00 | 74 | 1013.3 |
| 20260504202921 | 60 | 345 | 2.0 | 3.0 | 0.00 | 0.00 | 0.00 | 74 | 1013.1 |
| 20260504202417 | 60 | 108 | 2.0 | 4.0 | 0.00 | 0.00 | 0.00 | 74 | 1013.2 |
| 20260504201914 | 60 | 156 | 1.0 | 3.0 | 0.00 | 0.00 | 0.00 | 74 | 1013.3 |
| 20260504201412 | 60 | 161 | 0.0 | 6.0 | 0.00 | 0.00 | 0.00 | 74 | 1013.1 |
| 20260504200909 | 60 | 26 | 4.0 | 6.0 | 0.00 | 0.00 | 0.00 | 73 | 1013.1 |
| 20260504200405 | 61 | 49 | 2.0 | 4.0 | 0.00 | 0.00 | 0.00 | 73 | 1013.0 |
| 20260504195902 | 61 | 49 | 4.0 | 6.0 | 0.00 | 0.00 | 0.00 | 72 | 1012.8 |
| 20260504195358 | 61 | 57 | 2.0 | 3.0 | 0.00 | 0.00 | 0.00 | 72 | 1013.0 |
| 20260504194855 | 62 | 122 | 2.0 | 6.0 | 0.00 | 0.00 | 0.00 | 71 | 1013.0 |
| 20260504194350 | 62 | 93 | 5.0 | 7.0 | 0.00 | 0.00 | 0.00 | 71 | 1012.8 |
| 20260504193847 | 62 | 54 | 2.0 | 4.0 | 0.00 | 0.00 | 0.00 | 71 | 1012.6 |
| 20260504193344 | 62 | 44 | 2.0 | 3.0 | 0.00 | 0.00 | 0.00 | 70 | 1012.5 |
| 20260504192843 | 63 | 356 | 4.0 | 10.0 | 0.00 | 0.00 | 0.00 | 70 | 1012.7 |
| 20260504192340 | 63 | 20 | 8.0 | 10.0 | 0.00 | 0.00 | 0.00 | 69 | 1012.6 |
| 20260504191838 | 63 | 45 | 4.0 | 8.0 | 0.00 | 0.00 | 0.00 | 68 | 1012.6 |
| 20260504191336 | 63 | 94 | 2.0 | 2.0 | 0.00 | 0.00 | 0.00 | 68 | 1012.6 |
| 20260504190831 | 64 | 11 | 5.0 | 8.0 | 0.00 | 0.00 | 0.00 | 68 | 1012.3 |
| 20260504190327 | 64 | 275 | 2.0 | 4.0 | 0.00 | 0.00 | 0.00 | 68 | 1012.5 |
| 20260504185824 | 64 | 343 | 4.0 | 6.0 | 0.00 | 0.00 | 0.00 | 67 | 1012.4 |
| 20260504185321 | 64 | 65 | 2.0 | 7.0 | 0.00 | 0.00 | 0.00 | 67 | 1012.3 |
| 20260504184817 | 65 | 279 | 2.0 | 7.0 | 0.00 | 0.00 | 0.00 | 66 | 1012.3 |
| 20260504184313 | 65 | 10 | 5.0 | 9.0 | 0.00 | 0.00 | 0.00 | 66 | 1012.1 |
| 20260504183809 | 66 | 34 | 4.0 | 11.0 | 0.00 | 0.00 | 0.00 | 65 | 1012.1 |
| 20260504183306 | 66 | 11 | 4.0 | 8.0 | 0.00 | 0.00 | 0.00 | 64 | 1011.9 |
| 20260504182804 | 67 | 29 | 7.0 | 11.0 | 0.00 | 0.00 | 0.00 | 63 | 1011.7 |
| 20260504182301 | 68 | 20 | 12.0 | 14.0 | 0.00 | 0.00 | 0.00 | 61 | 1012.0 |
| 20260504181759 | 69 | 283 | 6.0 | 14.0 | 0.00 | 0.00 | 0.00 | 58 | 1011.5 |
| 20260504181255 | 70 | 334 | 6.0 | 9.0 | 0.00 | 0.00 | 0.00 | 54 | 1011.7 |
| 20260504180755 | 71 | 343 | 8.0 | 13.0 | 0.00 | 0.00 | 0.00 | 53 | 1011.4 |
| 20260504180253 | 71 | 62 | 3.0 | 4.0 | 0.00 | 0.00 | 0.00 | 49 | 1011.3 |
| 20260504175750 | 71 | 13 | 7.0 | 9.0 | 0.00 | 0.00 | 0.00 | 48 | 1011.2 |
| 20260504175247 | 71 | 115 | 2.0 | 3.0 | 0.00 | 0.00 | 0.00 | 38 | 1011.2 |
| 20260504174745 | 72 | 182 | 0.0 | 1.0 | 0.00 | 0.00 | 0.00 | 37 | 1011.2 |
| 20260504174243 | 72 | 131 | 1.0 | 3.0 | 0.00 | 0.00 | 0.00 | 37 | 1011.0 |
| 20260504173739 | 73 | 97 | 2.0 | 2.0 | 0.00 | 0.00 | 0.00 | 36 | 1010.8 |
| 20260504173236 | 73 | 205 | 0.0 | 1.0 | 0.00 | 0.00 | 0.00 | 34 | 1010.8 |
| 20260504172733 | 74 | 171 | 0.0 | 1.0 | 0.00 | 0.00 | 0.00 | 34 | 1010.7 |
| 20260504172229 | 75 | 197 | 2.0 | 3.0 | 0.00 | 0.00 | 0.00 | 33 | 1010.7 |
| 20260504171725 | 75 | 214 | 3.0 | 4.0 | 0.00 | 0.00 | 0.00 | 32 | 1010.6 |
| 20260504171222 | 75 | 212 | 2.0 | 3.0 | 0.00 | 0.00 | 0.00 | 32 | 1010.7 |
| 20260504170719 | 76 | 194 | 2.0 | 8.0 | 0.00 | 0.00 | 0.00 | 32 | 1010.6 |
| 20260504170217 | 76 | 196 | 2.0 | 6.0 | 0.00 | 0.00 | 0.00 | 31 | 1010.6 |
| 20260504160135 | 77 | 187 | 4.0 | 6.0 | 0.00 | 0.00 | 0.00 | 29 | 1010.5 |
| 20260504151102 | 78 | 224 | 7.0 | 8.0 | 0.00 | 0.00 | 0.00 | 27 | 1010.4 |
| 20260504150600 | 79 | 233 | 6.0 | 10.0 | 0.00 | 0.00 | 0.00 | 26 | 1010.6 |
| 20260504141026 | 80 | 289 | 1.0 | 9.0 | 0.00 | 0.00 | 0.00 | 25 | 1010.5 |
| 20260504140522 | 81 | 187 | 2.0 | 7.0 | 0.00 | 0.00 | 0.00 | 26 | 1010.5 |
| 20260504130447 | 81 | 189 | 6.0 | 9.0 | 0.00 | 0.00 | 0.00 | 27 | 1010.9 |
| 20260504110334 | 79 | 194 | 1.0 | 10.0 | 0.00 | 0.00 | 0.00 | 24 | 1011.8 |
| 20260504100251 | 78 | 217 | 9.0 | 13.0 | 0.00 | 0.00 | 0.00 | 23 | 1012.5 |
| 20260504081645 | 74 | 211 | 5.0 | 8.0 | 0.00 | 0.00 | 0.00 | 37 | 1013.1 |
| 20260504081141 | 74 | 173 | 4.0 | 8.0 | 0.00 | 0.00 | 0.00 | 37 | 1013.2 |
| 20260504080637 | 74 | 190 | 5.0 | 9.0 | 0.00 | 0.00 | 0.00 | 37 | 1013.2 |
| 20260504080134 | 74 | 195 | 9.0 | 10.0 | 0.00 | 0.00 | 0.00 | 36 | 1013.0 |
| 20260504050450 | 59 | 183 | 2.0 | 3.0 | 0.00 | 0.00 | 0.00 | 52 | 1013.5 |
| 20260504045947 | 59 | 192 | 1.0 | 4.0 | 0.00 | 0.00 | 0.00 | 53 | 1013.5 |
| 20260504045443 | 58 | 183 | 2.0 | 2.0 | 0.00 | 0.00 | 0.00 | 56 | 1013.5 |
| 20260504044939 | 57 | 177 | 0.0 | 1.0 | 0.00 | 0.00 | 0.00 | 62 | 1013.6 |
| 20260504044437 | 56 | 176 | 0.0 | 1.0 | 0.00 | 0.00 | 0.00 | 67 | 1013.5 |